EN

Hourly Weather Ali

Today, 26 January, Tuesday

Time Temperature Precipitation Wind Pressure Humidity
00:00 -7°C° 0 mm 1 mps 721 mmHg 83%
01:00 -8°C° 0 mm 1 mps 721 mmHg 83%
02:00 -8°C° 0 mm 1 mps 721 mmHg 84%
03:00 -9°C° 0 mm 1 mps 721 mmHg 83%
04:00 -9°C° 0 mm 1 mps 721 mmHg 83%
05:00 -9°C° 0 mm 1 mps 721 mmHg 86%
06:00 -9°C° 0 mm 1 mps 721 mmHg 85%
07:00 -9°C° 0 mm 1 mps 722 mmHg 84%
08:00 -9°C° 0 mm 1 mps 722 mmHg 83%
09:00 -7°C° 0 mm 1 mps 722 mmHg 80%
10:00 -6°C° 0 mm 1 mps 722 mmHg 77%
11:00 -4°C° 0 mm 1 mps 722 mmHg 73%
12:00 -3°C° 0 mm 1 mps 721 mmHg 73%
13:00 -3°C° 0 mm 1 mps 721 mmHg 73%
14:00 -4°C° 0 mm 2 mps 721 mmHg 73%
15:00 -5°C° 0 mm 2 mps 721 mmHg 77%
16:00 -6°C° 0 mm 2 mps 721 mmHg 82%
17:00 -7°C° 0 mm 2 mps 721 mmHg 87%
18:00 -7°C° 0 mm 1 mps 721 mmHg 87%
19:00 -7°C° 0 mm 1 mps 722 mmHg 88%
20:00 -7°C° 0 mm 1 mps 722 mmHg 88%
21:00 -8°C° 0 mm 1 mps 722 mmHg 87%
22:00 -9°C° 0 mm 2 mps 721 mmHg 86%
23:00 -9°C° 0 mm 2 mps 721 mmHg 85%

Tomorrow, 27 January, Wednesday

Time Temperature Precipitation Wind Pressure Humidity
00:00 -9°C° 0 mm 2 mps 721 mmHg 85%
01:00 -10°C° 0 mm 2 mps 721 mmHg 85%
02:00 -9°C° 0 mm 1 mps 721 mmHg 86%
03:00 -9°C° 0 mm 1 mps 721 mmHg 85%
04:00 -9°C° 0 mm 1 mps 721 mmHg 84%
05:00 -10°C° 0 mm 1 mps 721 mmHg 84%
06:00 -9°C° 0 mm 1 mps 721 mmHg 83%
07:00 -9°C° 0 mm 1 mps 721 mmHg 82%
08:00 -9°C° 0 mm 1 mps 721 mmHg 82%
09:00 -8°C° 0 mm 1 mps 721 mmHg 78%
10:00 -6°C° 0 mm 1 mps 721 mmHg 75%
11:00 -4°C° 0 mm 1 mps 721 mmHg 72%
12:00 -3°C° 0 mm 1 mps 721 mmHg 71%
13:00 -2°C° 0 mm 1 mps 720 mmHg 70%
14:00 -2°C° 0 mm 1 mps 720 mmHg 69%
15:00 -3°C° 0 mm 1 mps 720 mmHg 73%
16:00 -4°C° 0 mm 1 mps 720 mmHg 77%
17:00 -7°C° 0 mm 1 mps 720 mmHg 80%
18:00 -7°C° 0 mm 1 mps 721 mmHg 80%
19:00 -7°C° 0 mm 1 mps 721 mmHg 79%
20:00 -8°C° 0 mm 1 mps 721 mmHg 79%
21:00 -8°C° 0 mm 1 mps 721 mmHg 79%
22:00 -8°C° 0 mm 1 mps 721 mmHg 79%
23:00 -9°C° 0 mm 1 mps 721 mmHg 79%

Day after tomorrow, 28 January, Thursday

Time Temperature Precipitation Wind Pressure Humidity
00:00 -9°C° 0 mm 1 mps 721 mmHg 80%
01:00 -9°C° 0 mm 1 mps 721 mmHg 80%
02:00 -10°C° 0 mm 0 mps 721 mmHg 80%
03:00 -10°C° 0 mm 0 mps 721 mmHg 81%
04:00 -10°C° 0 mm 0 mps 721 mmHg 82%
05:00 -10°C° 0 mm 0 mps 721 mmHg 82%
06:00 -10°C° 0 mm 0 mps 721 mmHg 82%
07:00 -10°C° 0 mm 0 mps 721 mmHg 82%
08:00 -10°C° 0 mm 0 mps 721 mmHg 83%
09:00 -8°C° 0 mm 1 mps 721 mmHg 79%
10:00 -7°C° 0 mm 1 mps 721 mmHg 76%
11:00 -4°C° 0 mm 1 mps 720 mmHg 72%
12:00 -4°C° 0 mm 1 mps 720 mmHg 71%
13:00 -5°C° 0 mm 2 mps 720 mmHg 70%
14:00 -4°C° 0 mm 2 mps 720 mmHg 69%
15:00 -3°C° 0 mm 1 mps 720 mmHg 73%
16:00 -6°C° 0 mm 1 mps 720 mmHg 77%
17:00 -7°C° 0 mm 1 mps 720 mmHg 81%
18:00 -7°C° 0 mm 1 mps 720 mmHg 81%
19:00 -8°C° 0 mm 1 mps 720 mmHg 82%
20:00 -8°C° 0 mm 0 mps 720 mmHg 82%
21:00 -8°C° 0 mm 0 mps 720 mmHg 82%
22:00 -9°C° 0 mm 0 mps 720 mmHg 82%
23:00 -9°C° 0 mm 0 mps 720 mmHg 82%

29 January, Friday

Time Temperature Precipitation Wind Pressure Humidity
00:00 -9°C° 0 mm 0 mps 720 mmHg 82%
01:00 -9°C° 0 mm 0 mps 720 mmHg 82%
02:00 -9°C° 0 mm 0 mps 720 mmHg 82%
03:00 -10°C° 0 mm 0 mps 720 mmHg 82%
04:00 -10°C° 0 mm 1 mps 720 mmHg 82%
05:00 -10°C° 0 mm 1 mps 720 mmHg 81%
06:00 -10°C° 0 mm 1 mps 720 mmHg 80%
07:00 -10°C° 0 mm 1 mps 720 mmHg 79%
08:00 -10°C° 0 mm 1 mps 720 mmHg 78%
09:00 -9°C° 0 mm 2 mps 720 mmHg 74%
10:00 -8°C° 0 mm 2 mps 720 mmHg 71%
11:00 -7°C° 0 mm 3 mps 719 mmHg 67%
12:00 -6°C° 0 mm 3 mps 719 mmHg 66%
13:00 -5°C° 0 mm 3 mps 719 mmHg 65%
14:00 -3°C° 0 mm 2 mps 719 mmHg 64%
15:00 -5°C° 0 mm 2 mps 719 mmHg 67%
16:00 -6°C° 0 mm 2 mps 719 mmHg 70%
17:00 -7°C° 0 mm 2 mps 719 mmHg 73%
18:00 -8°C° 0 mm 2 mps 719 mmHg 73%
19:00 -8°C° 0 mm 2 mps 719 mmHg 73%
20:00 -8°C° 0 mm 2 mps 719 mmHg 72%
21:00 -9°C° 0 mm 2 mps 719 mmHg 72%
22:00 -9°C° 0 mm 2 mps 719 mmHg 71%
23:00 -9°C° 0 mm 2 mps 719 mmHg 71%

30 January, Saturday

Time Temperature Precipitation Wind Pressure Humidity
00:00 -9°C° 0 mm 2 mps 719 mmHg 71%
01:00 -9°C° 0 mm 2 mps 719 mmHg 71%
02:00 -10°C° 0 mm 2 mps 719 mmHg 72%
03:00 -10°C° 0 mm 2 mps 719 mmHg 71%
04:00 -10°C° 0 mm 2 mps 718 mmHg 71%
05:00 -10°C° 0 mm 2 mps 718 mmHg 71%
06:00 -10°C° 0 mm 3 mps 718 mmHg 69%
07:00 -10°C° 0 mm 3 mps 718 mmHg 68%
08:00 -10°C° 0 mm 3 mps 718 mmHg 67%
09:00 -9°C° 0 mm 4 mps 718 mmHg 65%
10:00 -7°C° 0 mm 5 mps 717 mmHg 63%
11:00 -5°C° 0 mm 6 mps 717 mmHg 61%
12:00 -5°C° 0 mm 6 mps 716 mmHg 60%
13:00 -4°C° 0 mm 6 mps 716 mmHg 59%
14:00 -3°C° 0 mm 6 mps 715 mmHg 58%
15:00 -4°C° 0 mm 6 mps 715 mmHg 59%
16:00 -5°C° 0 mm 5 mps 715 mmHg 59%
17:00 -6°C° 0 mm 5 mps 715 mmHg 60%
18:00 -5°C° 0 mm 4 mps 715 mmHg 60%
19:00 -7°C° 0 mm 4 mps 715 mmHg 61%
20:00 -7°C° 0 mm 4 mps 714 mmHg 62%
21:00 -7°C° 0 mm 3 mps 714 mmHg 63%
22:00 -7°C° 0 mm 3 mps 714 mmHg 64%
23:00 -8°C° 0 mm 3 mps 714 mmHg 65%

31 January, Sunday

Time Temperature Precipitation Wind Pressure Humidity
00:00 -8°C° 0 mm 3 mps 713 mmHg 65%
01:00 -8°C° 0 mm 3 mps 713 mmHg 64%
02:00 -8°C° 0 mm 3 mps 713 mmHg 63%
03:00 -8°C° 0 mm 3 mps 712 mmHg 63%
04:00 -8°C° 0 mm 3 mps 711 mmHg 62%
05:00 -8°C° 0 mm 3 mps 711 mmHg 61%
06:00 -8°C° 0 mm 3 mps 711 mmHg 59%
07:00 -7°C° 0 mm 3 mps 710 mmHg 57%
08:00 -7°C° 0 mm 3 mps 710 mmHg 55%
09:00 -5°C° 0 mm 4 mps 710 mmHg 55%
10:00 -4°C° 0 mm 4 mps 709 mmHg 56%
11:00 -2°C° 0 mm 5 mps 709 mmHg 57%
12:00 -1°C° 0 mm 4 mps 709 mmHg 58%
13:00 -1°C° 0 mm 4 mps 708 mmHg 59%
14:00 0°C° 0 mm 4 mps 708 mmHg 60%
15:00 -1°C° 0 mm 3 mps 708 mmHg 62%
16:00 -2°C° 0 mm 2 mps 708 mmHg 64%
17:00 -1°C° 0 mm 1 mps 708 mmHg 66%
18:00 -1°C° 0 mm 1 mps 708 mmHg 65%
19:00 -1°C° 0 mm 1 mps 708 mmHg 63%
20:00 -1°C° 0 mm 1 mps 708 mmHg 62%
21:00 -1°C° 0 mm 1 mps 708 mmHg 61%
22:00 -1°C° 0 mm 1 mps 708 mmHg 60%
23:00 0°C° 0 mm 1 mps 709 mmHg 59%
Show more